Weather History for Lamar, CO

Change the Weather History Date:

Tuesday, December 3, 2013

  Actual Average Record
Temperature  
Mean Temperature 46 °F 33 °F  
Max Temperature 68 °F 49 °F 73 °F (1926)
Min Temperature 24 °F 17 °F -4 °F (1955)
Degree Days  
Heating Degree Days 19 32  
Month to date heating degree days 62 96  
Since 1 July heating degree days 1130 1312  
Cooling Degree Days 0 0  
Month to date cooling degree days 0 0  
Year to date cooling degree days 1568 1121  
Moisture  
Dew Point 23 °F    
Average Humidity 49    
Maximum Humidity 81    
Minimum Humidity 16    
Precipitation  
Precipitation 0.00 in 0.01 in 1.70 in (1921)
Month to date precipitation 0.00 0.04  
Year to date precipitation 10.32 14.84  
Sea Level Pressure  
Sea Level Pressure 29.51 in    
Wind  
Wind Speed 9 mph (North)    
Max Wind Speed 35 mph    
Max Gust Speed 45 mph    
Visibility 9 miles    
Events      
T = Trace of Precipitation, MM = Missing Value Source: NWS Daily Summary

Daily Weather History Graph

Daily Weather History Graph

Search for Another Location

Airport:

Trip Planner

Search our weather history database for the weather conditions in past years. The results will help you decide how hot, cold, wet, or windy it might be!

Date:

Astronomy

Dec. 03, 2013 Rise Set
Actual Time 6:50 AM MST 4:30 PM MST
Civil Twilight 6:21 AM MST 5:00 PM MST
Nautical Twilight 5:48 AM MST 5:32 PM MST
Astronomical Twilight 5:16 AM MST 6:04 PM MST
Moon 7:22 AM MST (12/3) 5:36 PM MST (12/3)
Length of Visible Light 10h 39m
Length of Day
9h 40m
New Moon, 1% of the Moon is Illuminated
Dec 3
New Moon
Dec 9
First Quarter
Dec 17
Full
Dec 25
Last Quarter
Jan 1
New

Hourly Weather History & Observations

Time (MST) Temp. Windchill Dew Point Humidity Pressure Visibility Wind Dir Wind Speed Gust Speed Precip Events Conditions
12:53 AM 30.9 °F 22.2 °F 23.0 °F 72% 29.48 in 10.0 mi SW 10.4 mph - N/A   Clear
1:53 AM 28.9 °F 23.9 °F 21.9 °F 75% 29.51 in 10.0 mi West 4.6 mph - N/A   Clear
2:53 AM 28.9 °F 22.8 °F 21.9 °F 75% 29.52 in 10.0 mi SW 5.8 mph - N/A   Clear
3:53 AM 28.0 °F 24.2 °F 21.0 °F 75% 29.52 in 10.0 mi WSW 3.5 mph - N/A   Clear
4:53 AM 28.9 °F - 21.9 °F 75% 29.53 in 10.0 mi Calm Calm - N/A   Clear
5:53 AM 26.1 °F 16.2 °F 19.9 °F 78% 29.57 in 10.0 mi SSW 10.4 mph - N/A   Clear
6:53 AM 26.1 °F 18.4 °F 21.0 °F 81% 29.58 in 10.0 mi SW 6.9 mph - N/A   Clear
7:53 AM 32.0 °F - 25.0 °F 75% 29.57 in 10.0 mi Calm Calm - N/A   Clear
8:53 AM 39.0 °F - 27.0 °F 62% 29.56 in 10.0 mi Calm Calm - N/A   Clear
9:53 AM 48.9 °F - 27.0 °F 43% 29.52 in 10.0 mi Calm Calm - N/A   Clear
10:53 AM 55.9 °F - 27.0 °F 33% 29.49 in 10.0 mi Calm Calm - N/A   Clear
11:53 AM 63.0 °F - 19.9 °F 19% 29.43 in 10.0 mi WSW 4.6 mph - N/A   Clear
12:53 PM 64.0 °F - 19.9 °F 18% 29.40 in 10.0 mi Variable 3.5 mph - N/A   Clear
1:53 PM 66.0 °F - 21.0 °F 18% 29.37 in 10.0 mi Calm Calm - N/A   Clear
2:53 PM 66.9 °F - 19.0 °F 16% 29.36 in 10.0 mi South 4.6 mph - N/A   Clear
3:53 PM 61.0 °F - 23.0 °F 23% 29.37 in 10.0 mi East 8.1 mph - N/A   Clear
4:53 PM 55.0 °F - 26.1 °F 33% 29.38 in 10.0 mi ESE 9.2 mph - N/A   Clear
5:53 PM 50.0 °F - 28.9 °F 44% 29.42 in 10.0 mi ESE 6.9 mph - N/A   Clear
6:43 PM 42.1 °F 31.9 °F 28.0 °F 58% 29.50 in 3.0 mi NNE 26.5 mph 44.9 mph N/A   Haze
6:53 PM 39.9 °F 28.8 °F 28.0 °F 63% 29.54 in 5.0 mi North 27.6 mph 36.8 mph N/A   Haze
7:15 PM 36.0 °F 23.2 °F 28.0 °F 73% 29.53 in 7.0 mi NNE 28.8 mph 34.5 mph N/A   Scattered Clouds
7:53 PM 35.1 °F 22.5 °F 27.0 °F 72% 29.58 in 9.0 mi NNE 26.5 mph 36.8 mph N/A   Partly Cloudy
8:16 PM 32.0 °F 19.8 °F 23.0 °F 69% 29.57 in 10.0 mi NNE 20.7 mph 32.2 mph N/A   Mostly Cloudy
8:53 PM 30.9 °F 18.1 °F 21.9 °F 69% 29.62 in 10.0 mi NNE 21.9 mph 28.8 mph N/A   Overcast
9:53 PM 28.9 °F 15.1 °F 19.9 °F 69% 29.63 in 10.0 mi NNE 23.0 mph 29.9 mph N/A   Overcast
10:53 PM 26.1 °F 12.3 °F 16.0 °F 66% 29.66 in 10.0 mi NNE 19.6 mph 31.1 mph N/A   Overcast
11:53 PM 24.1 °F 10.1 °F 14.0 °F 65% 29.68 in 10.0 mi North 18.4 mph - N/A   Overcast